Regional Weather Roundup
Issued by NWS

Home | Current Version | Previous Version | Text Only | Print | Product List | Glossary On
Versions: 1 2 3 4 5 6 7 8 9 10 11 12 13 14 15 16 17 18 19 20 21 22 23 24 25 26 27 28 29 30 31 32 33 34 35 36 37 38 39 40 41 42 43 44 45 46 47 48 49 50
000
ASUS44 KFWD 020415
RWRTX
NORTH TEXAS HOURLY WEATHER ROUNDUP
NATIONAL WEATHER SERVICE FORT WORTH TX
1100 PM CDT WED JUL 01 2015

NOTE: "FAIR" INDICATES FEW OR NO CLOUDS BELOW 12,000 FEET WITH NO
SIGNIFICANT WEATHER AND/OR OBSTRUCTIONS TO VISIBILITY.

TXZ118-119-020500-
DALLAS/FORT WORTH METROPLEX

CITY           SKY/WX    TMP DP  RH WIND       PRES   REMARKS
DFW AIRPORT    PTCLDY    83  68  60 S16G23    29.95R
DALLAS LOVE    CLEAR     83  68  60 S14G21    29.96R
FTW MEACHAM    CLEAR     82  71  69 S14G23    29.95R
DAL-EXECUTIVE  CLEAR     79  66  64 S9G17     29.96R
FTW-ALLIANCE   CLEAR     82  70  66 S8        29.95R
FTW-NAS-JRB    CLEAR     82  72  71 S14G21    29.96R
FTW-SPINKS     CLEAR     79  68  69 S9        29.98R
ARLINGTON      CLEAR     80  67  64 S9        29.96R
GRAND PRAIRIE  CLEAR     81  69  68 S13       29.98R
ADDISON        CLEAR     83  71  66 S12       29.98R
MESQUITE       CLEAR     78  70  77 S9        29.97R
LANCASTER      CLEAR     77  67  71 S6        29.98R
$$

TXZ091>094-102>105-117-120-121-131>134-020500-
NORTH CENTRAL TEXAS

CITY           SKY/WX    TMP DP  RH WIND       PRES   REMARKS
SHRMAN/DENISON CLEAR     82  73  76 S12       29.96R
GAINESVILLE    CLEAR     81  71  71 S13       29.97R
BRIDGEPORT     CLEAR     81  71  72 S7        29.96R
DECATUR        CLEAR     81  69  67 S9        29.96R
DENTON         CLEAR     80  70  71 S7        29.95R
GREENVILLE     CLEAR     79  70  73 S7        29.98R
ROCKWALL       CLEAR     79  71  75 S13G18    29.96R
TERRELL        CLEAR     77  71  82 S6        29.98R
WAXAHACHIE     CLEAR     76  69  78 S8        29.99R
CLEBURNE       CLEAR     77  73  88 S12       29.99R
GRANBURY       CLEAR     82  69  64 S15       29.98R
$$

TXZ083>090-098>101-113>116-127>130-139>142-154-155-020500-
WESTERN NORTH TEXAS

CITY           SKY/WX    TMP DP  RH WIND       PRES   REMARKS
WICHITA FALLS  CLEAR     84  66  54 S16G24    29.91R
VERNON         PTCLDY    86  57  37 SW14      29.92R
ABILENE        CLEAR     79  66  64 S9        29.98R
ABILENE-DYESS  CLEAR     78  68  72 S8        29.97R
BRECKENRIDGE   CLEAR     83  67  58 S9        29.95R
GRAHAM         CLEAR     81  70  68 S5        29.94R
MINERAL WELLS  CLEAR     80  68  66 S10       29.94R
STEPHENVILLE   CLEAR     77  66  69 S7        30.01R
COMANCHE       CLEAR     77  69  74 S12G17    29.99R
BROWNWOOD      CLEAR     77  66  69 S9        30.00R
COLEMAN        CLEAR     78  68  70 S9        30.00R
BRADY          CLEAR     75  64  69 N10       30.03R
$$

TXZ143>147-156>162-174-175-020500-
CENTRAL TEXAS

CITY           SKY/WX    TMP DP  RH WIND       PRES   REMARKS
WACO           CLEAR     77  68  73 S16       30.00R
WACO-TSTC      CLEAR     75  68  78 S10       30.00R
WACO-MCGREGOR  CLEAR     73  66  78 S8        30.02R
HILLSBORO      CLEAR     76  66  70 S10       29.99R
CORSICANA      CLEAR     77  70  79 S12       30.00R
MEXIA          CLEAR     73  71  93 SE12G17   30.00R
HEARNE         CLEAR     73  72  95 SE6       30.04R
CAMERON        CLEAR     74  70  85 S10G16    30.03R
TEMPLE         CLEAR     73  68  83 S10       30.01R
KILLEEN        CLEAR     74  69  84 S7        30.02R
KILLEEN-SKYLRK CLEAR     75  66  73 S7        30.02R
FORT HOOD      CLEAR     75  69  79 S9        30.01R
GATESVILLE     CLEAR     79  70  73 S7        30.03R
HAMILTON       CLEAR     76  66  71 S12       30.02R
LAMPASAS       CLEAR     76  69  80 S5        30.03R
$$

TXZ095>097-106>112-122>126-135>138-148>153-164>167-020500-
EAST TEXAS

CITY           SKY/WX    TMP DP  RH WIND       PRES   REMARKS
PARIS          CLEAR     81  66  61 S10       29.97R
MOUNT PLEASANT CLEAR     78  71  80 S8        30.00R
MINEOLA        CLEAR     79  72  78 S5        30.00R
TYLER          CLEAR     76  68  76 S7        30.01R
LONGVIEW       CLEAR     79  70  74 S10       30.00R
MARSHALL       CLEAR     78  70  76 S3        30.03R
ATHENS         CLEAR     73  68  83 S7        29.99S
PALESTINE      CLEAR     74  70  87 SE6       30.03R
HENDERSON      CLEAR     73  70  89 S3        30.04R
CENTER         FAIR      75  70  83 CALM      30.02S
NACOGDOCHES    PTCLDY   N/A N/A N/A SE3       30.03S
LUFKIN         PTCLDY    77  71  82 S7        30.04R
$$

SUPPLEMENTAL OBSERVATIONS (CENTRAL)

CITY           SKY/WX    TMP DP  RH WIND       PRES   REMARKS
LAKE TEXOMA      N/A     82  70  65 S8          N/A
CADDO GRASSLND   N/A     81  70  69 S13         N/A
PAT MAYSE LAKE   N/A     82  73  74 S17         N/A
ATHENS           N/A     75  66  73 S8          N/A
LAKE LIMESTONE   N/A     73  70  88 S3          N/A
MCGREGOR         N/A     73  68  83 S7          N/A
$$

SUPPLEMENTAL OBSERVATIONS (WEST)

CITY           SKY/WX    TMP DP  RH WIND       PRES   REMARKS
MILLERS CREEK    N/A     81  68  65 S6          N/A
LBJ GRASSLAND    N/A     81  70  69 S8G16       N/A
COMANCHE         N/A     77  64  65 S14         N/A
HAMBY            N/A     81  66  61 S10         N/A
IVIE RESERVOIR   N/A     79  64  61 S10         N/A
COLORADO BEND    N/A     75  64  69 SW9         N/A
$$

SUPPLEMENTAL OBSERVATIONS (EAST)

CITY           SKY/WX    TMP DP  RH WIND       PRES   REMARKS
TEXARKANA        N/A     79  72  78 S1          N/A
LINDEN           N/A     77  70  78 S3          N/A
CADDO LAKE       N/A     75  70  83 SE1         N/A
GILMER           N/A     79  68  69 S3          N/A
HENDERSON        N/A     73  68  83 S7          N/A
LUFKIN           N/A     73  70  88 MISG        N/A
N SABINE NF      N/A     73  68  83 MISG        N/A
S SABINE NF      N/A     73  70  88 CALM        N/A
$$

SUPPLEMENTAL OBSERVATIONS ARE A COLLECTION OF AUTOMATED INSTRUMENTS
THAT ARE MAINTAINED BY A VARIETY OF FEDERAL AND STATE AGENCIES.
CERTAIN ELEMENTS...SUCH AS HUMIDITY VALUES AND SUSTAINED WIND
SPEEDS...MAY BE APPROXIMATED.




USA.gov is the U.S. government's official web portal to all federal, state and local government web resources and services.